Location: *
(48.7358°N, 0.3111°E)
Time: 02:30:47
(UTC+00:00)

Cosmos 1484 Rocket - Pass Details

Date: 22 October 2019
Orbit: 507 x 559 km, 97.4° (Epoch: 14 November)

Event Time Altitude Azimuth Distance (km) Brightness Sun altitude
Rises 04:58:11 0° 16° (NNE) 2,653 6.5 -15.6°
Reaches altitude 10° 05:00:18 10° 20° (NNE) 1,767 5.7 -15.3°
Maximum altitude 05:04:05 60° 101° (E) 607 3.3 -14.7°
Drops below altitude 10° 05:07:53 10° 182° (S) 1,782 5.4 -14.0°
Sets 05:10:02 0° 186° (S) 2,677 6.3 -13.7°
